Miscellaneous Local Product
Issued by NWS North Platte, NE

Home | Current Version | Previous Version | Graphics & Text | Print | Product List | Glossary On
Versions: 1 2 3 4 5 6 7 8 9 10 11 12 13 14 15 16 17 18 19 20 21 22 23 24 25 26 27 28 29 30 31 32 33 34 35 36 37 38 39 40 41 42 43 44 45 46 47 48 49 50
147
AXUS43 KLBF 242310
MISLBF


WESTERN AND NORTH CENTRAL NEBRASKA HOURLY WEATHER ROUNDUP
NATIONAL WEATHER SERVICE NORTH PLATTE NE
600 PM CDT MON JUL 24 2017

NOTE: "FAIR" INDICATES FEW OR NO CLOUDS BELOW 12,000 FEET WITH NO
SIGNIFICANT WEATHER AND/OR OBSTRUCTIONS TO VISIBILITY.

NOTE: STATIONS NOT REPORTING VARIABLES SUCH AS SKY/WEATHER OR
PRESSURE ARE PROVIDED BY RAWS AND APRS NETWORKS AND ARE NOT UNDER
NATIONAL WEATHER SERVICE QUALITY CONTROL.

...OBSERVATIONS IN AND NEAR THE EASTERN PANHANDLE OF NEBRASKA...

CITY           SKY/WX    TMP DP  RH WIND       PRES   REMARKS
PINE RIDGE     SUNNY    102  34   9 W9        29.81F HX  96
GORDON         FAIR      99  46  16 W8        29.83F HX  95
CHADRON        SUNNY    105  28   7 N8        29.80F HX  98
ALLIANCE       MOSUNNY  101  32   9 W12       29.86F HX  95
SIDNEY         LGT RAIN  88  60  38 E13       29.95S
CRESCENT LAKE    N/A     96  48  19 S10G26      N/A  HX  92
$$

...OBSERVATIONS IN NORTHERN NEBRASKA AND FAR SOUTHERN SOUTH DAKOTA...

CITY           SKY/WX    TMP DP  RH WIND       PRES   REMARKS
WINNER         FAIR     102  47  15 S18       29.73F HX  98
VALENTINE      SUNNY    105  45  13 S24G31    29.76F HX 101
THEDFORD       SUNNY    100  49  18 S22G32    29.86F HX  96
AINSWORTH      SUNNY    100  54  21 S24G31    29.82F HX  98
O`NEILL        SUNNY     91  69  47 S20       29.88S HX  95
ORD            SUNNY     92  65  40 S18G24    29.89S HX  94
BROKEN BOW     SUNNY     94  66  39 S18G29    29.91S HX  97
HALSEY           N/A     98  55  23 S13G26      N/A  HX  96
BUTTE            N/A     90  68  48 SE21G29     N/A  HX  94
CHAMBERS         N/A     93  67  42 S12         N/A  HX  96
EWING            N/A     89  74  60 S7G15       N/A  HX  97
$$

...OBSERVATIONS IN SOUTHWEST NEBRASKA AND FAR NORTHEAST COLORADO...

CITY           SKY/WX    TMP DP  RH WIND       PRES   REMARKS
HOLYOKE        FAIR      95  54  24 S15       29.92S HX  93
IMPERIAL       SUNNY     97  54  23 S18G25    29.90F HX  95
OGALLALA       SUNNY     95  53  24 S9G18     29.89S HX  92
NORTH PLATTE   SUNNY     97  52  21 S17       29.87F HX  94
MCCOOK         SUNNY     99  52  20 S21       29.90F HX  96
LEXINGTON      SUNNY     91  67  44 SE14G20   29.91F HX  94
STAPLETON        N/A     99  52  20 CALM        N/A  HX  96
GOTHENBURG       N/A     95  52  23 S12         N/A  HX  92
CALLAWAY         N/A     93  70  46 S20         N/A  HX  98
$$

...OBSERVATIONS IN CENTRAL LINCOLN COUNTY AREA...

CITY           SKY/WX    TMP DP  RH WIND       PRES   REMARKS
N.P. AIRPORT   SUNNY     97  52  21 S17       29.87F HX  94
N.P. DOWNTOWN    N/A     98  54  22 SW5G16      N/A  HX  96
N.P. SOUTHEAST   N/A     97  52  21 S13G26      N/A  HX  94
N.P. HILLCREST   N/A     96  52  22 S17G24      N/A  HX  93
$$

...SOME OBSERVATIONS FROM AROUND THE REGION...

CITY           SKY/WX    TMP DP  RH WIND       PRES   REMARKS
DENVER         PTSUNNY   97  31   9 NW8       30.01F HX  91
LIMON          MOSUNNY   89  49  25 S16G25    30.06S
ASPEN          PTSUNNY   85  38  18 NW12      30.21F
LARAMIE        CLOUDY    82  36  19 N5        30.19F
CASPER         PTSUNNY   91  28  10 SW12      29.98F
CHEYENNE       LGT RAIN  82  39  21 SW17G58   30.14R SQUALL
SCOTTSBLUFF    MOSUNNY  102  38  11 N6        29.88F HX  96
GRAND ISLAND   FAIR      89  72  56 SE12      29.94S HX  96
OMAHA          FAIR      86  65  49 SE10      29.96S
SIOUX FALLS    FAIR      83  65  54 SE21      29.92F
PIERRE         MOSUNNY   95  65  37 SE29G37   29.69F HX  97
RAPID CITY     SUNNY     97  47  18 NE10G16   29.83R HX  93
BISMARCK       SUNNY     88  66  48 SE23      29.78F HX  90
KANSAS CITY    FAIR      86  66  51 E7        29.98S
HILL CITY      FAIR      99  50  19 S15       29.92F HX  96
WICHITA        FAIR      97  65  34 SE10      29.92F HX  99
DODGE CITY     FAIR      96  52  22 S16G24    29.97F HX  93
OKLAHOMA CITY  FAIR      91  66  43 S9        29.94F HX  93
DALLAS         FAIR      92  74  55 SE10      29.92S HX 101
AMARILLO       FAIR      88  63  43 SE23G30   30.03S
$$




USA.gov is the U.S. government's official web portal to all federal, state and local government web resources and services.